Avoca, PA

12:09 PM EDT on April 27, 2017 (GMT -0400)
Wilkes-Barre-Scranton International

Weather History for KAVP - October, 2012

Change the Weather History Date:

Sunday, October 7, 2012

  Actual Average Record
Temperature  
Mean Temperature 47 °F 54 °F  
Max Temperature 52 °F 64 °F 89 °F (1941)
Min Temperature 41 °F 44 °F 28 °F (1999)
Degree Days  
Heating Degree Days 18 11  
Month to date heating degree days 44 72  
Since 1 July heating degree days 161 234  
Cooling Degree Days 0 0  
Month to date cooling degree days 3 0  
Year to date cooling degree days 864 576  
Moisture  
Dew Point 41 °F    
Average Humidity 78    
Maximum Humidity 93    
Minimum Humidity 63    
Precipitation  
Precipitation 0.05 in 0.12 in 2.09 in (1951)
Month to date precipitation 1.02 0.81  
Year to date precipitation 28.37 29.91  
Sea Level Pressure  
Sea Level Pressure 30.07 in    
Wind  
Wind Speed 2 mph (WSW)    
Max Wind Speed 15 mph    
Max Gust Speed 21 mph    
Visibility 10 miles    
Events Rain    
T = Trace of Precipitation, MM = Missing Value Source: NWS Daily Summary

Daily Weather History Graph

Daily Weather History Graph

Search for Another Location

Airport or City:

Trip Planner

Search our weather history database for the weather conditions in past years. The results will help you decide how hot, cold, wet, or windy it might be!

Date:

Astronomy

Oct. 07, 2012 Rise Set
Actual Time 7:06 AM EDT 6:33 PM EDT
Civil Twilight 6:38 AM EDT 7:01 PM EDT
Nautical Twilight 6:06 AM EDT 7:33 PM EDT
Astronomical Twilight 5:34 AM EDT 8:05 PM EDT
Moon 11:40 PM EDT (10/7) 1:44 PM EDT (10/7)
Length of Visible Light 12h 22m
Length of Day
11h 27m
Waning Gibbous, 56% of the Moon is Illuminated
Oct 7
Waning Gibbous
Oct 8
Last Quarter
Oct 15
New
Oct 21
First Quarter
Oct 29
Full

Hourly Weather History & Observations

Time (EDT) Temp. Windchill Dew Point Humidity Pressure Visibility Wind Dir Wind Speed Gust Speed Precip Events Conditions
12:54 AM 41.0 °F - 39.0 °F 93% 30.05 in 8.0 mi Calm Calm - N/A   Clear
1:54 AM 43.0 °F - 39.0 °F 86% 30.06 in 10.0 mi Calm Calm - N/A   Clear
2:54 AM 43.0 °F - 39.9 °F 89% 30.05 in 10.0 mi Calm Calm - N/A   Clear
3:54 AM 42.1 °F - 39.0 °F 89% 30.05 in 9.0 mi Calm Calm - N/A   Clear
4:54 AM 42.1 °F - 39.0 °F 89% 30.04 in 10.0 mi Calm Calm - N/A   Clear
5:54 AM 43.0 °F - 39.9 °F 89% 30.03 in 10.0 mi Calm Calm - N/A   Partly Cloudy
6:54 AM 44.1 °F - 41.0 °F 89% 30.06 in 10.0 mi Calm Calm - N/A   Overcast
7:54 AM 45.0 °F - 41.0 °F 86% 30.08 in 10.0 mi Calm Calm - N/A   Mostly Cloudy
8:54 AM 46.0 °F - 42.1 °F 86% 30.10 in 10.0 mi Calm Calm - N/A   Mostly Cloudy
9:54 AM 46.9 °F - 42.1 °F 83% 30.11 in 10.0 mi Calm Calm - N/A   Overcast
10:54 AM 48.9 °F - 42.1 °F 77% 30.10 in 10.0 mi Calm Calm - N/A   Mostly Cloudy
11:54 AM 50.0 °F - 39.9 °F 68% 30.09 in 10.0 mi Calm Calm - N/A   Overcast
12:54 PM 51.1 °F - 39.9 °F 66% 30.07 in 10.0 mi Calm Calm - N/A   Mostly Cloudy
1:54 PM 51.1 °F - 39.0 °F 63% 30.05 in 10.0 mi Calm Calm - N/A   Mostly Cloudy
2:54 PM 52.0 °F - 39.9 °F 63% 30.03 in 10.0 mi West 3.5 mph - N/A   Overcast
3:54 PM 52.0 °F - 39.9 °F 63% 30.02 in 10.0 mi Calm Calm - N/A   Overcast
4:54 PM 52.0 °F - 39.0 °F 61% 30.00 in 10.0 mi West 5.8 mph - 0.00 in   Overcast
5:54 PM 50.0 °F - 39.9 °F 68% 30.04 in 10.0 mi West 5.8 mph - 0.00 in Rain Light Rain
6:54 PM 46.9 °F - 39.0 °F 74% 30.06 in 10.0 mi West 8.1 mph - 0.02 in Rain Light Rain
7:54 PM 45.0 °F 43.5 °F 42.1 °F 90% 30.08 in 9.0 mi SSW 3.5 mph - 0.02 in Rain Light Rain
8:50 PM 44.6 °F - 42.8 °F 93% 30.08 in 9.0 mi Calm Calm - 0.00 in Rain Light Rain
8:54 PM 45.0 °F - 42.1 °F 90% 30.09 in 10.0 mi Calm Calm - 0.01 in Rain Light Rain
9:22 PM 46.4 °F - 42.8 °F 87% 30.10 in 10.0 mi Calm Calm - 0.00 in   Overcast
9:54 PM 46.0 °F 44.8 °F 42.1 °F 86% 30.10 in 10.0 mi SSW 3.5 mph - 0.00 in   Overcast
10:54 PM 45.0 °F 43.5 °F 42.1 °F 90% 30.11 in 10.0 mi SW 3.5 mph - N/A   Overcast
11:16 PM 46.4 °F 43.5 °F 42.8 °F 87% 30.11 in 10.0 mi WSW 5.8 mph - N/A   Overcast
11:54 PM 45.0 °F 42.6 °F 42.1 °F 90% 30.12 in 10.0 mi SW 4.6 mph - N/A   Overcast